User: anonymous   Login
Location: Unspecified
(0.0000°N, 0.0000°E)
Time: 09:47:08
(UTC+00:00)
Language:

ISS - Orbit

View from above orbital plane
View from above orbital plane
View from above satellite
View from above satellite

Ground track
Ground track

The orbit data is extracted from the following two-line orbital elements,

1 25544U 98067A   18200.67462652  .00016717  00000-0  10270-3 0  9028
2 25544  51.6362 216.7898 0004263 333.6751  26.4184 15.53995791  3562
Epoch (UTC): 19 July 2018 16:11:27
Eccentricity: 0.0004263
inclination: 51.6362°
perigee height: 402 km
apogee height: 408 km
right ascension of ascending node: 216.7898°
argument of perigee: 333.6751°
revolutions per day: 15.53995791
mean anomaly at epoch: 26.4184°
orbit number at epoch: 356

The dashed part of the orbit path shows where the satellite is in the earth's shadow,  

DLR